Regional Weather Roundup
Issued by NWS

Home | Current Version | Previous Version | Graphics & Text | Print | Product List | Glossary On
Versions: 1 2 3 4 5 6 7 8 9 10 11 12 13 14 15 16 17 18 19 20 21 22 23 24 25 26 27 28 29 30 31 32 33 34 35 36 37 38 39 40 41 42 43 44 45 46 47 48 49 50
000
ASUS43 KDTX 222001
RWRMI
MICHIGAN HOURLY REGIONAL WEATHER ROUNDUP
NATIONAL WEATHER SERVICE DETROIT/PONTIAC MI
400 PM EDT FRI JUL 22 2016

NOTE: "FAIR" INDICATES FEW OR NO CLOUDS BELOW 12,000 FEET WITH NO
SIGNIFICANT WEATHER AND/OR OBSTRUCTION TO VISIBILITY.

MIZ047>049-052>055-059>063-066>070-074>076-081>083-222100-
SOUTHEAST LOWER MICHIGAN

CITY           SKY/WX    TMP DP  RH WIND       PRES   REMARKS
ADRIAN         SUNNY     90  70  51 SW9       30.01F HX  95
ALMA           SUNNY     91  70  50 W9G18     29.97F HX  96
ANN ARBOR      SUNNY     91  69  48 SW16G22   29.98F HX  96
BAD AXE        SUNNY     91  61  37 W7        29.94F HX  90
CARO           MOSUNNY   92  70  49 SW7       29.94F HX  97
DETROIT CITY   SUNNY     93  67  42 W14       29.95F HX  96
DETROIT        MOSUNNY   94  68  42 SW14      29.97F HX  98
FLINT          SUNNY     97  67  37 W16       29.96F HX 101
GROSSE ILE     SUNNY     92  68  46 W10       29.96F HX  96
HOWELL         SUNNY     92  64  38 W12G18    29.99F HX  94

CITY           SKY/WX    TMP DP  RH WIND       PRES   REMARKS
JACKSON        SUNNY     89  70  53 SW10      30.00F HX  94
LAMBERTVILLE   SUNNY     91  70  49 W8        30.00F HX  96
LANSING        SUNNY     90  67  46 W14       29.99F HX  93
LAPEER         FAIR      94  64  37 NW10G16   29.96F HX  95
MASON          MOSUNNY   90  68  48 SW8G18    29.99F HX  94
MONROE         SUNNY     90  74  60 W8G21     29.98F HX  99
MT. CLEMENS    MOSUNNY   93  68  43 W12G20    29.92F HX  98
PONTIAC        MOSUNNY   92  67  43 W17G24    29.97F HX  95
PORT HOPE        N/A     84  69  60 VRB5      29.91F
PORT HURON     MOSUNNY   91  70  49 W6        29.94S HX  97
TRI CITIES     MOSUNNY   90  73  57 SW15      29.95F HX  98
MIDLAND        FAIR      92  68  45 SW9       29.93F HX  96
TROY           SUNNY     94  63  35 W12G23    29.98F HX  95
SAGINAW HB     MOSUNNY   91  70  49 W10       29.94F HX  97
$$
MIZ043>046-050>051-056>058-064>065-071>073-077>080-222100-
SOUTHWEST LOWER MICHIGAN

CITY           SKY/WX    TMP DP  RH WIND       PRES   REMARKS
BATTLE CREEK   CLOUDY    85  71  63 W12       30.02F HX  90
BENTON HARBOR  SUNNY     84  67  56 W12       30.02F
BIG RAPIDS     SUNNY     90  66  45 W9        29.97F HX  92
COLDWATER      MOSUNNY   89  68  51 W9        30.01F HX  92
FREMONT        FAIR      86  69  55 SW9       29.99F HX  90
HOLLAND        SUNNY     82  69  64 W9        30.02F
GRAND RAPIDS   MOSUNNY   87  68  52 W12       30.00F HX  90
IONIA          FAIR      89  64  42 SW14G20   29.98F HX  90
KALAMAZOO      SUNNY     88  68  51 W9        30.01F HX  91
LUDINGTON      SUNNY     78  70  75 SW7       30.00F
MARSHALL       SUNNY     89  70  53 W9        30.00F HX  94
MOUNT PLEASANT SUNNY     92  67  43 W9G16     29.95F HX  96
MUSKEGON       MOSUNNY   81  68  64 SW8       30.00F
SOUTH HAVEN    SUNNY     81  68  65 W8        30.02S
$$
MIZ016>042-222100-
NORTHERN LOWER MICHIGAN

CITY           SKY/WX    TMP DP  RH WIND       PRES   REMARKS
ALPENA         SUNNY     91  54  28 NW12G20   29.91F
BEAVER ISLAND  SUNNY     85  64  48 SW9       29.94F
BELLAIRE       SUNNY     85  57  38 NW6       29.96S
CADILLAC       SUNNY     90  55  30 W13       29.99F
CHARLEVOIX     SUNNY     85  62  46 W9        29.97F
FRANKFORT      SUNNY     80  68  67 W6        29.99S
GAYLORD        SUNNY     86  56  35 NW7       29.98S
GRAYLING       SUNNY     90  58  34 NW10G18   29.98F
HARBOR SPRINGS SUNNY     76  68  76 S7        29.94F
HOUGHTON LAKE  SUNNY     91  54  28 NW12      29.97F
MANISTEE       SUNNY     82  69  64 W10       29.98F
OSCODA         SUNNY     90  60  36 E7        29.90F
PELLSTON       SUNNY     88  60  38 NW10      29.93F
ROGERS CITY    SUNNY     88  57  34 NW10      29.91F
TRAVERSE CITY  SUNNY     91  56  30 N9        29.94F
$$
MIZ007>008-015-222100-
EASTERN UPPER MICHIGAN

CITY           SKY/WX    TMP DP  RH WIND       PRES   REMARKS
KINROSS        SUNNY     84  64  50 N10       29.91S
MACKINAC ISLAN SUNNY     80  64  59 SW12G21   29.91F
NEWBERRY       SUNNY     87  57  35 W8G23     29.91F HAZE
S. S. MARIE    SUNNY     81  62  52 NW10      29.90F
MUNISING         N/A     80  65  59 N9        29.92F
$$
MIZ004>006-011>014-085-222100-
CENTRAL UPPER MICHIGAN

CITY           SKY/WX    TMP DP  RH WIND       PRES   REMARKS
MANISTIQUE     SUNNY     92  53  27 NW12G22   29.91F
ESCANABA       SUNNY     91  55  29 N12G18    29.92S
MENOMINEE      SUNNY     90  65  43 SW6       29.95F HX  92
SAWYER-GWINN   SUNNY     90  50  25 W20G25    29.96S
$$
MIZ001>003-009>011-084-222100-
WESTERN UPPER MICHIGAN

CITY           SKY/WX    TMP DP  RH WIND       PRES   REMARKS
IRON MOUNTAIN  SUNNY     93  54  26 NW12      29.96F HX  91
HOUGHTON       SUNNY     85  61  44 W21G28    29.93F
COPPER HARBOR    N/A     86  61  42 NW14G29   29.89S
IRONWOOD       SUNNY     88  61  40 W10G20    29.97F
$$

ABBREVIATIONS USED IN REMARKS
   TC - TEMPERATURE IN CELSIUS
  WCI - WIND CHILL INDEX
   HX - HEAT INDEX
  VSB - VISIBILITY





USA.gov is the U.S. government's official web portal to all federal, state and local government web resources and services.